Wind_Speed
20 21 22 24 25 25 25 24 23 23 23 24 24 24 24 25 25 23 22 22 23 24 24 24 24 25 25 26 27 28 29 30 31 32 32 33 34 34 35 35 36 36 36
25 26 27 28 29 29 28 27 26 26 27 28 28 28 28 29 28 28 26 26 26 26 26 27 27 27 28 29 30 31 32 33 33 34 36 37 37 38 39 39 40 40 40
28 28 30 29 30 30 31 31 31 29 30 31 32 32 32 32 31 31 31 30 28 28 29 29 30 30 31 32 33 34 35 36 37 38 39 40 41 42 42 43 43 43 43
31 30 30 29 30 31 31 32 33 32 33 34 34 34 35 34 34 34 34 34 33 31 31 32 33 34 34 34 35 36 38 39 40 41 43 44 45 45 46 46 46 47 47
31 30 31 31 32 32 32 31 31 32 33 34 34 34 35 36 36 36 36 37 36 35 35 34 35 36 37 37 38 39 40 42 43 45 46 48 49 50 51 51 51 52 52
32 32 32 32 32 31 31 30 29 31 33 34 35 36 36 37 37 38 38 38 38 38 39 38 38 38 38 40 41 43 44 46 47 49 51 52 54 55 56 57 57 57 57
34 33 32 32 31 31 31 30 28 29 31 32 34 34 34 35 37 37 37 38 37 37 37 38 39 40 40 42 44 47 49 50 52 54 56 58 59 60 62 62 63 64 64
35 34 33 32 31 30 31 30 29 29 29 29 30 31 31 33 34 34 36 37 37 38 38 40 41 44 46 48 49 51 53 56 58 60 62 63 65 66 67 68 69 70 70
37 35 34 33 32 31 30 30 30 30 29 28 29 29 30 31 32 34 34 35 37 39 42 45 47 50 52 54 56 58 59 61 63 65 67 69 70 71 72 72 73 74 74
37 37 36 34 33 31 31 31 31 31 31 31 31 31 32 34 35 35 37 40 42 44 46 49 52 55 57 59 61 63 65 66 68 70 71 72 73 74 75 75 75 76 75
39 38 37 36 35 34 33 33 33 33 34 35 35 35 36 38 40 42 44 45 48 51 53 55 57 59 61 64 66 67 69 70 71 73 74 74 75 75 75 75 75 75 75
40 40 38 38 37 37 36 36 36 36 37 38 39 40 41 43 45 47 49 50 53 56 59 61 63 65 66 68 69 70 70 72 73 74 74 74 74 75 75 75 75 75 74
41 41 40 39 40 40 39 39 39 39 40 42 43 44 45 48 50 52 53 55 58 60 62 64 67 69 70 71 71 72 72 73 73 73 74 74 74 74 74 75 74 73 72
42 42 42 42 42 41 41 42 42 43 43 44 46 47 49 51 54 56 58 60 61 63 65 67 69 70 71 72 72 72 73 73 73 73 73 72 72 72 72 72 72 71 70
44 44 45 45 45 45 45 45 45 45 46 47 49 50 52 55 57 59 61 63 64 65 65 67 68 69 70 71 71 71 71 71 71 71 70 70 69 67 66 65 64 64 64
47 47 48 49 49 48 49 48 48 48 49 50 52 53 55 57 59 61 63 64 65 65 65 65 67 68 68 68 69 69 69 68 66 65 64 63 60 58 57 56 55 55 56
51 51 52 53 52 52 52 52 52 51 52 53 54 56 57 58 59 61 62 63 64 64 64 64 65 66 66 67 67 66 64 61 59 57 54 51 50 49 49 48 47 47 46
53 54 55 55 55 55 55 54 54 54 55 55 56 56 57 57 58 59 60 61 62 62 62 61 62 63 62 61 60 59 56 54 50 47 45 44 43 43 42 41 41 40 40
55 56 56 57 57 56 56 56 56 56 56 56 56 56 56 57 57 58 58 58 59 59 59 59 58 57 56 55 53 50 47 45 43 42 41 40 40 39 39 39 38 38 37
56 57 57 57 57 57 57 57 57 57 56 56 55 55 55 55 55 55 55 55 55 55 55 54 53 51 49 47 45 42 40 40 39 40 40 39 38 37 37 37 36 36 34
56 57 57 57 57 57 57 58 57 56 56 55 55 54 54 53 52 52 52 52 52 51 50 48 46 42 40 39 39 38 38 37 36 36 35 35 35 34 34 34 33 33 32
55 55 55 55 56 56 56 56 56 55 55 54 53 52 51 50 49 48 48 48 47 46 44 40 36 35 34 35 35 35 34 33 32 32 31 30 30 29 30 29 29 29 30
53 54 54 54 54 55 55 55 55 54 53 51 50 48 47 46 45 44 43 42 41 39 34 31 30 31 32 33 33 32 31 30 30 29 27 26 27 27 27 27 26 26 27
52 52 52 52 52 53 53 52 51 50 48 47 45 44 42 41 39 38 37 36 34 30 28 27 29 30 31 31 30 29 28 27 26 26 25 24 24 25 25 25 25 24 23
50 50 50 50 49 49 49 48 46 45 43 42 40 38 36 35 34 32 30 28 25 24 25 26 28 28 28 28 27 26 26 25 24 25 25 25 24 24 24 23 22 21 20
47 47 47 47 46 45 44 43 42 40 39 37 35 32 30 28 27 25 22 20 19 20 22 24 25 26 26 26 25 25 24 24 24 24 25 25 24 23 22 22 21 19 17
Wind_Direction
330 327 323 317 311 304 297 290 285 281 277 271 268 268 268 268 270 269 268 271 273 273 275 276 276 277 277 278 278 278 278 278 278 278 278 278 277 276 275 274 273 272 270
330 329 325 319 314 307 300 292 285 281 276 272 272 271 270 270 272 274 271 270 273 275 277 277 278 279 279 279 280 280 280 280 279 279 279 278 277 277 276 275 274 273 271
327 328 328 322 318 312 303 294 288 283 277 274 271 271 272 273 271 272 273 272 271 273 276 277 278 279 279 280 280 280 280 280 280 280 280 279 278 277 276 275 274 272 271
327 328 329 325 323 319 310 300 293 288 281 276 273 270 271 271 272 272 273 275 275 273 273 275 277 278 279 279 280 280 280 280 280 280 280 279 278 277 276 275 274 273 271
328 329 326 323 322 322 319 309 300 293 287 281 278 276 272 271 272 272 273 274 276 276 275 274 275 277 279 280 280 280 280 280 280 279 279 278 278 277 276 275 274 272 271
322 324 324 324 323 322 323 319 309 302 295 290 284 280 276 274 277 275 273 273 275 276 279 279 277 277 278 279 280 280 280 279 279 278 278 277 276 275 274 273 272 271 270
317 318 323 323 322 320 319 319 314 308 303 297 290 286 283 282 283 279 275 275 276 278 279 281 283 282 281 280 279 279 280 280 280 279 278 277 275 274 273 271 271 270 269
310 313 315 317 319 318 318 317 315 313 309 305 298 292 289 288 287 284 282 281 282 282 281 280 281 280 280 280 280 279 278 278 278 278 278 277 276 274 273 272 270 269 268
304 306 309 311 312 313 315 316 314 312 311 308 303 297 294 293 292 289 286 285 286 285 283 282 280 281 281 281 280 279 279 278 278 278 278 277 277 276 274 273 272 270 269
299 301 305 306 306 307 309 310 310 308 308 307 305 301 297 294 292 290 288 286 285 283 282 282 282 282 282 281 281 280 280 280 279 279 279 278 278 277 276 274 273 271 270
295 297 299 300 302 302 304 304 305 305 304 303 302 299 296 293 292 292 291 289 288 287 285 284 283 282 281 281 281 281 281 281 281 280 280 279 279 278 277 275 274 273 271
292 293 294 296 297 298 300 301 301 301 300 300 299 297 295 293 293 292 291 290 289 288 288 287 286 285 285 285 285 284 284 283 283 282 281 280 279 278 278 277 275 274 272
290 290 291 293 294 295 296 298 298 299 298 297 296 295 293 292 291 290 289 288 288 287 287 288 288 288 287 287 287 287 286 286 285 283 282 281 281 280 279 277 276 274 272
288 289 289 290 292 293 295 296 296 296 295 295 294 294 292 290 290 288 287 287 287 288 288 288 289 289 289 289 289 289 288 288 287 286 285 283 282 281 280 278 276 274 271
287 287 288 290 292 293 294 295 294 294 293 292 292 291 289 288 288 288 288 288 288 288 288 290 290 290 290 290 290 289 289 289 288 288 287 285 284 282 280 278 277 274 271
285 286 288 290 291 292 293 293 293 293 291 291 290 289 288 288 288 288 289 290 290 290 291 291 291 291 291 290 290 290 290 290 289 288 288 287 285 283 281 279 278 276 274
286 287 288 289 291 291 292 292 292 292 291 291 290 289 289 289 290 290 291 291 292 292 292 292 292 292 292 292 292 291 291 291 290 290 289 288 286 285 283 282 280 277 275
286 287 288 288 289 290 291 292 292 292 292 291 291 291 291 291 291 292 292 293 293 293 294 294 294 294 294 294 293 293 293 293 292 290 290 289 287 286 285 283 281 278 276
286 287 287 288 289 291 292 292 292 293 293 292 292 292 293 293 293 293 294 294 294 295 296 296 296 296 295 295 295 295 295 294 294 293 292 291 289 287 286 284 281 279 277
284 286 287 288 289 291 291 292 292 293 293 293 293 294 294 294 295 295 295 295 296 297 297 298 298 298 297 297 298 298 298 297 297 296 295 293 292 290 287 285 282 279 277
284 285 287 289 290 291 291 292 292 292 292 293 293 294 294 294 295 296 296 297 298 299 299 300 301 301 301 301 302 302 302 301 300 298 297 297 295 293 291 287 283 280 277
287 289 290 290 291 291 291 291 291 292 292 293 293 293 294 294 295 296 297 298 299 300 301 302 304 305 306 306 306 307 306 306 304 302 302 301 298 297 294 291 288 283 278
291 291 291 291 291 291 291 291 291 292 292 293 293 294 294 295 297 297 298 299 301 302 304 307 308 309 310 310 311 312 312 312 311 309 307 305 302 301 299 296 292 288 283
292 292 292 291 291 291 291 292 292 292 293 293 293 294 295 296 297 298 299 300 302 305 308 311 314 316 317 318 318 319 319 319 318 316 315 313 310 308 305 302 298 292 286
292 293 293 293 293 292 292 292 293 293 293 293 294 294 295 295 296 297 298 300 303 307 312 316 319 321 323 324 324 325 326 326 324 322 321 319 316 314 311 306 303 298 290
295 294 294 295 294 294 293 293 293 293 293 294 294 294 293 293 294 295 297 300 305 311 316 320 324 327 330 332 333 333 332 331 330 328 325 323 320 317 314 310 307 302 296
Height
5884 5883 5881 5879 5878 5876 5875 5874 5873 5873 5872 5870 5869 5870 5869 5868 5867 5868 5868 5867 5867 5867 5866 5865 5865 5864 5864 5863 5863 5862 5861 5861 5860 5859 5859 5858 5858 5858 5857 5857 5858 5858 5858
5880 5879 5877 5875 5873 5871 5870 5869 5868 5868 5867 5866 5865 5865 5864 5863 5863 5862 5863 5863 5862 5861 5861 5860 5859 5858 5858 5857 5856 5855 5854 5853 5852 5852 5851 5850 5850 5849 5849 5848 5848 5849 5849
5876 5874 5872 5870 5867 5865 5864 5862 5861 5861 5860 5859 5859 5859 5858 5857 5857 5856 5855 5856 5856 5856 5854 5853 5853 5852 5851 5850 5849 5847 5846 5845 5844 5843 5842 5841 5840 5839 5839 5839 5838 5838 5839
5872 5870 5868 5865 5862 5859 5857 5855 5853 5853 5853 5852 5852 5852 5851 5851 5851 5850 5849 5848 5848 5849 5848 5847 5845 5844 5842 5842 5840 5839 5837 5836 5835 5833 5832 5830 5829 5828 5828 5828 5827 5827 5827
5868 5866 5863 5861 5858 5854 5851 5849 5847 5846 5845 5845 5844 5844 5844 5843 5843 5843 5842 5841 5840 5839 5839 5839 5838 5836 5834 5833 5831 5829 5828 5826 5825 5823 5821 5819 5818 5817 5816 5815 5815 5814 5814
5864 5862 5858 5855 5853 5850 5847 5843 5841 5839 5838 5837 5837 5836 5836 5836 5835 5835 5835 5834 5833 5832 5830 5829 5829 5827 5826 5823 5821 5819 5817 5815 5813 5811 5809 5807 5805 5803 5802 5801 5800 5800 5800
5859 5856 5854 5851 5848 5845 5842 5839 5836 5833 5831 5830 5829 5829 5828 5828 5827 5826 5826 5825 5824 5823 5822 5819 5817 5816 5815 5813 5811 5808 5805 5803 5800 5797 5795 5792 5790 5788 5787 5785 5784 5784 5783
5854 5851 5849 5847 5844 5840 5837 5834 5830 5828 5825 5823 5822 5821 5821 5821 5819 5818 5817 5816 5815 5813 5812 5810 5807 5805 5803 5800 5798 5795 5792 5789 5786 5782 5779 5776 5773 5771 5769 5767 5766 5765 5765
5847 5845 5843 5841 5838 5835 5832 5828 5825 5822 5820 5817 5815 5814 5813 5812 5811 5810 5808 5806 5805 5803 5801 5798 5795 5792 5789 5786 5783 5780 5777 5774 5770 5766 5762 5758 5755 5752 5750 5748 5746 5745 5744
5841 5839 5836 5834 5832 5829 5826 5823 5820 5817 5814 5811 5809 5806 5805 5803 5802 5801 5799 5797 5794 5792 5789 5786 5782 5778 5774 5770 5767 5763 5760 5757 5753 5748 5743 5738 5735 5732 5729 5727 5725 5723 5722
5833 5831 5829 5827 5825 5822 5819 5816 5813 5810 5807 5804 5801 5799 5797 5794 5792 5790 5788 5785 5781 5778 5775 5771 5768 5763 5758 5754 5750 5746 5742 5738 5733 5728 5723 5719 5714 5710 5707 5704 5702 5700 5699
5825 5823 5821 5819 5816 5814 5811 5808 5805 5802 5799 5795 5792 5789 5787 5784 5781 5778 5775 5772 5768 5764 5759 5754 5750 5745 5740 5735 5731 5726 5722 5717 5712 5707 5702 5697 5693 5689 5685 5682 5679 5678 5676
5817 5815 5813 5810 5808 5805 5802 5799 5795 5792 5789 5786 5782 5779 5775 5772 5768 5765 5761 5758 5754 5750 5744 5738 5732 5726 5721 5715 5710 5705 5700 5695 5690 5685 5680 5675 5671 5667 5663 5659 5656 5654 5653
5807 5805 5803 5800 5798 5795 5792 5788 5785 5782 5778 5775 5771 5767 5763 5759 5755 5751 5747 5743 5739 5735 5729 5722 5715 5709 5703 5696 5690 5685 5679 5674 5668 5663 5658 5653 5649 5644 5640 5636 5633 5631 5630
5797 5795 5792 5790 5787 5784 5780 5777 5774 5770 5766 5762 5759 5755 5751 5746 5741 5737 5732 5727 5723 5719 5715 5706 5699 5692 5685 5679 5672 5666 5660 5654 5648 5642 5636 5631 5627 5622 5618 5614 5611 5608 5607
5787 5784 5781 5778 5775 5772 5768 5765 5761 5758 5754 5750 5745 5741 5737 5732 5727 5721 5716 5710 5705 5701 5697 5690 5682 5675 5668 5661 5654 5647 5641 5635 5629 5622 5616 5611 5606 5602 5598 5595 5592 5589 5588
5775 5772 5769 5765 5762 5759 5755 5751 5748 5744 5740 5736 5731 5727 5722 5717 5712 5706 5700 5695 5689 5683 5679 5674 5666 5658 5651 5643 5636 5629 5623 5617 5611 5606 5600 5594 5590 5586 5582 5579 5576 5573 5572
5763 5759 5756 5752 5749 5745 5742 5738 5734 5730 5725 5721 5716 5712 5707 5702 5697 5691 5686 5680 5674 5667 5662 5658 5650 5642 5634 5626 5619 5613 5607 5601 5596 5591 5586 5581 5577 5572 5569 5566 5563 5560 5559
5750 5746 5742 5738 5735 5731 5727 5723 5719 5715 5711 5706 5702 5697 5693 5688 5683 5677 5671 5665 5659 5653 5646 5641 5634 5626 5619 5611 5605 5599 5593 5588 5583 5578 5573 5569 5565 5561 5557 5554 5551 5549 5547
5736 5732 5728 5724 5721 5717 5712 5708 5705 5700 5696 5692 5687 5683 5678 5674 5669 5663 5657 5651 5645 5639 5632 5626 5619 5612 5605 5598 5592 5587 5582 5577 5571 5566 5561 5557 5553 5549 5546 5542 5540 5538 5536
5722 5718 5714 5710 5706 5702 5698 5694 5689 5686 5682 5677 5673 5668 5664 5660 5655 5649 5644 5638 5632 5626 5620 5613 5607 5600 5594 5588 5582 5577 5571 5567 5561 5556 5551 5547 5543 5539 5535 5532 5529 5527 5526
5707 5704 5700 5696 5691 5687 5683 5679 5675 5671 5667 5663 5659 5655 5650 5646 5642 5637 5631 5626 5620 5614 5608 5603 5597 5591 5586 5580 5574 5568 5562 5557 5553 5548 5543 5538 5533 5530 5526 5523 5520 5518 5516
5693 5689 5685 5681 5677 5672 5668 5664 5660 5656 5653 5649 5645 5641 5637 5633 5630 5625 5620 5615 5609 5604 5599 5594 5590 5584 5579 5573 5567 5561 5555 5549 5544 5539 5535 5531 5526 5522 5518 5514 5511 5509 5507
5679 5675 5671 5667 5662 5657 5653 5650 5646 5642 5639 5635 5632 5629 5625 5621 5618 5614 5610 5606 5601 5597 5592 5588 5583 5578 5572 5566 5560 5554 5549 5543 5538 5532 5528 5524 5520 5515 5511 5507 5503 5501 5499
5665 5661 5656 5652 5648 5644 5639 5635 5632 5629 5626 5623 5620 5617 5614 5611 5608 5605 5602 5599 5595 5592 5588 5583 5578 5573 5567 5561 5555 5550 5544 5539 5534 5528 5523 5518 5514 5509 5504 5500 5497 5494 5492
5651 5647 5642 5638 5634 5630 5626 5622 5619 5617 5614 5611 5609 5606 5604 5602 5600 5598 5596 5594 5591 5588 5584 5580 5575 5569 5564 5558 5552 5546 5540 5535 5529 5524 5519 5513 5508 5503 5500 5495 5491 5489 5486